When you browse on this site, cookies collect data to enhance your experience and personalize the content and advertising you see.
Visit our Privacy Policy to learn more. By continuing to use the site, you agree to this use of cookies and data.
  • în România
  • Lista ţărilor
  • Pe 7 zile
  • Temperatura apei
  • Hartă satelitară
  • Meteo pe hartă
  • Widget-uri
  • user-avatar
    Intrare

    Meteo pe oră la Shaki

    Astăzi, 14 Decembrie, Vineri

    Timp Temperatura Precipitaţii Vânt Presiune Umiditate
    00:00 +5°C° 0 mm 3 m/s 740 mmHg 43%
    01:00 +4°C° 0 mm 3 m/s 740 mmHg 43%
    02:00 +4°C° 0 mm 3 m/s 740 mmHg 43%
    03:00 +5°C° 0 mm 2 m/s 740 mmHg 42%
    04:00 +4°C° 0 mm 2 m/s 741 mmHg 43%
    05:00 +4°C° 0 mm 2 m/s 741 mmHg 43%
    06:00 +4°C° 0 mm 2 m/s 741 mmHg 44%
    07:00 +5°C° 0 mm 2 m/s 741 mmHg 43%
    08:00 +5°C° 0 mm 2 m/s 741 mmHg 41%
    09:00 +6°C° 0 mm 2 m/s 741 mmHg 39%
    10:00 +7°C° 0 mm 2 m/s 741 mmHg 37%
    11:00 +8°C° 0 mm 2 m/s 741 mmHg 35%
    12:00 +9°C° 0 mm 2 m/s 741 mmHg 33%
    13:00 +8°C° 0 mm 2 m/s 741 mmHg 33%
    14:00 +8°C° 0 mm 3 m/s 741 mmHg 34%
    15:00 +8°C° 0 mm 3 m/s 741 mmHg 34%
    16:00 +7°C° 0 mm 3 m/s 741 mmHg 36%
    17:00 +7°C° 0 mm 3 m/s 741 mmHg 38%
    18:00 +5°C° 0 mm 3 m/s 742 mmHg 40%
    19:00 +5°C° 0 mm 3 m/s 742 mmHg 41%
    20:00 +4°C° 0 mm 3 m/s 742 mmHg 42%
    21:00 +4°C° 0 mm 3 m/s 742 mmHg 44%
    22:00 +3°C° 0 mm 3 m/s 742 mmHg 44%
    23:00 +3°C° 0 mm 3 m/s 742 mmHg 44%

    Mâine, 15 Decembrie, Sâmbătă

    Timp Temperatura Precipitaţii Vânt Presiune Umiditate
    00:00 +3°C° 0 mm 3 m/s 742 mmHg 45%
    01:00 +3°C° 0 mm 3 m/s 742 mmHg 45%
    02:00 +2°C° 0 mm 3 m/s 742 mmHg 45%
    03:00 +2°C° 0 mm 3 m/s 742 mmHg 45%
    04:00 +2°C° 0 mm 3 m/s 742 mmHg 45%
    05:00 +2°C° 0 mm 3 m/s 742 mmHg 46%
    06:00 +2°C° 0 mm 3 m/s 743 mmHg 47%
    07:00 +3°C° 0 mm 3 m/s 743 mmHg 45%
    08:00 +4°C° 0 mm 3 m/s 743 mmHg 44%
    09:00 +5°C° 0 mm 3 m/s 743 mmHg 43%
    10:00 +7°C° 0 mm 3 m/s 743 mmHg 41%
    11:00 +8°C° 0 mm 3 m/s 743 mmHg 39%
    12:00 +8°C° 0 mm 4 m/s 742 mmHg 37%
    13:00 +8°C° 0 mm 4 m/s 742 mmHg 37%
    14:00 +9°C° 0 mm 3 m/s 742 mmHg 38%
    15:00 +10°C° 0 mm 3 m/s 742 mmHg 39%
    16:00 +8°C° 0 mm 3 m/s 742 mmHg 41%
    17:00 +7°C° 0 mm 3 m/s 742 mmHg 44%
    18:00 +6°C° 0 mm 2 m/s 742 mmHg 46%
    19:00 +6°C° 0 mm 2 m/s 742 mmHg 47%
    20:00 +6°C° 0 mm 2 m/s 742 mmHg 48%
    21:00 +6°C° 0 mm 2 m/s 742 mmHg 49%
    22:00 +5°C° 0 mm 2 m/s 742 mmHg 50%
    23:00 +5°C° 0 mm 2 m/s 741 mmHg 51%

    Poimâine, 16 Decembrie, Duminică

    Timp Temperatura Precipitaţii Vânt Presiune Umiditate
    00:00 +5°C° 0 mm 2 m/s 741 mmHg 53%
    01:00 +5°C° 0 mm 2 m/s 741 mmHg 53%
    02:00 +5°C° 0 mm 2 m/s 741 mmHg 54%
    03:00 +5°C° 0 mm 2 m/s 741 mmHg 54%
    04:00 +5°C° 0 mm 2 m/s 741 mmHg 54%
    05:00 +5°C° 0 mm 2 m/s 740 mmHg 54%
    06:00 +5°C° 0 mm 2 m/s 740 mmHg 54%
    07:00 +6°C° 0 mm 2 m/s 741 mmHg 52%
    08:00 +7°C° 0 mm 2 m/s 741 mmHg 50%
    09:00 +8°C° 0 mm 2 m/s 741 mmHg 48%
    10:00 +9°C° 0 mm 2 m/s 741 mmHg 46%
    11:00 +10°C° 0 mm 2 m/s 741 mmHg 44%
    12:00 +12°C° 0 mm 2 m/s 741 mmHg 42%
    13:00 +12°C° 0 mm 2 m/s 741 mmHg 43%
    14:00 +12°C° 0 mm 1 m/s 741 mmHg 44%
    15:00 +12°C° 0 mm 1 m/s 741 mmHg 45%
    16:00 +9°C° 0 mm 2 m/s 741 mmHg 48%
    17:00 +8°C° 0 mm 2 m/s 741 mmHg 51%
    18:00 +7°C° 0 mm 2 m/s 742 mmHg 55%
    19:00 +7°C° 0 mm 2 m/s 742 mmHg 55%
    20:00 +6°C° 0 mm 2 m/s 742 mmHg 56%
    21:00 +6°C° 0 mm 2 m/s 742 mmHg 56%
    22:00 +6°C° 0 mm 2 m/s 742 mmHg 58%
    23:00 +6°C° 0 mm 2 m/s 742 mmHg 60%

    17 Decembrie, Luni

    Timp Temperatura Precipitaţii Vânt Presiune Umiditate
    00:00 +5°C° 0 mm 2 m/s 743 mmHg 62%
    01:00 +5°C° 0 mm 2 m/s 742 mmHg 65%
    02:00 +5°C° 0 mm 2 m/s 742 mmHg 68%
    03:00 +5°C° 0 mm 2 m/s 742 mmHg 71%
    04:00 +5°C° 0 mm 1 m/s 742 mmHg 73%
    05:00 +5°C° 0 mm 1 m/s 742 mmHg 75%
    06:00 +5°C° 0 mm 1 m/s 742 mmHg 78%
    07:00 +6°C° 0 mm 1 m/s 742 mmHg 77%
    08:00 +6°C° 0 mm 1 m/s 742 mmHg 75%
    09:00 +7°C° 0 mm 1 m/s 742 mmHg 74%
    10:00 +8°C° 0 mm 1 m/s 742 mmHg 72%
    11:00 +7°C° 0 mm 2 m/s 741 mmHg 71%
    12:00 +8°C° 0 mm 2 m/s 741 mmHg 69%
    13:00 +8°C° 0 mm 2 m/s 741 mmHg 70%
    14:00 +8°C° 0 mm 2 m/s 740 mmHg 70%
    15:00 +8°C° 0 mm 2 m/s 740 mmHg 71%
    16:00 +8°C° 0 mm 1 m/s 740 mmHg 74%
    17:00 +7°C° 0 mm 1 m/s 740 mmHg 78%
    18:00 +7°C° 0 mm 1 m/s 741 mmHg 81%
    19:00 +6°C° 0 mm 1 m/s 741 mmHg 81%
    20:00 +6°C° 0 mm 1 m/s 741 mmHg 81%
    21:00 +6°C° 0 mm 1 m/s 741 mmHg 81%
    22:00 +6°C° 0.1 mm 1 m/s 741 mmHg 81%
    23:00 +6°C° 0.1 mm 1 m/s 740 mmHg 81%

    18 Decembrie, Marţi

    Timp Temperatura Precipitaţii Vânt Presiune Umiditate
    00:00 +6°C° 0.1 mm 1 m/s 740 mmHg 82%
    01:00 +6°C° 0.3 mm 1 m/s 740 mmHg 82%
    02:00 +6°C° 0.3 mm 1 m/s 740 mmHg 83%
    03:00 +6°C° 0.3 mm 1 m/s 740 mmHg 83%
    04:00 +6°C° 0.4 mm 1 m/s 740 mmHg 84%
    05:00 +6°C° 0.4 mm 1 m/s 740 mmHg 84%
    06:00 +6°C° 0.4 mm 1 m/s 740 mmHg 84%
    07:00 +6°C° 0.5 mm 1 m/s 740 mmHg 84%
    08:00 +6°C° 0.5 mm 1 m/s 740 mmHg 84%
    09:00 +6°C° 0.5 mm 1 m/s 740 mmHg 84%
    10:00 +7°C° 0.4 mm 1 m/s 740 mmHg 84%
    11:00 +7°C° 0.4 mm 1 m/s 740 mmHg 83%
    12:00 +7°C° 0.4 mm 1 m/s 739 mmHg 82%
    13:00 +7°C° 0.3 mm 1 m/s 739 mmHg 82%
    14:00 +7°C° 0.3 mm 1 m/s 739 mmHg 83%
    15:00 +7°C° 0.3 mm 1 m/s 739 mmHg 83%
    16:00 +6°C° 0.1 mm 1 m/s 740 mmHg 86%
    17:00 +6°C° 0.1 mm 1 m/s 740 mmHg 88%
    18:00 +6°C° 0.1 mm 1 m/s 740 mmHg 90%
    19:00 +6°C° 0.1 mm 1 m/s 741 mmHg 90%
    20:00 +5°C° 0.1 mm 1 m/s 741 mmHg 91%
    21:00 +5°C° 0.1 mm 1 m/s 741 mmHg 91%
    22:00 +5°C° 0 mm 1 m/s 741 mmHg 91%
    23:00 +5°C° 0 mm 1 m/s 741 mmHg 90%

    19 Decembrie, Miercuri

    Timp Temperatura Precipitaţii Vânt Presiune Umiditate
    00:00 +5°C° 0 mm 1 m/s 741 mmHg 90%
    01:00 +4°C° 0 mm 0 m/s 741 mmHg 90%
    02:00 +4°C° 0 mm 0 m/s 741 mmHg 90%
    03:00 +3°C° 0 mm 0 m/s 741 mmHg 90%
    04:00 +3°C° 0 mm 0 m/s 741 mmHg 89%
    05:00 +3°C° 0 mm 0 m/s 742 mmHg 88%
    06:00 +3°C° 0 mm 0 m/s 742 mmHg 88%
    07:00 +4°C° 0 mm 0 m/s 742 mmHg 84%
    08:00 +5°C° 0 mm 1 m/s 742 mmHg 81%
    09:00 +6°C° 0 mm 1 m/s 743 mmHg 78%
    10:00 +6°C° 0 mm 1 m/s 742 mmHg 75%
    11:00 +7°C° 0 mm 1 m/s 742 mmHg 72%
    12:00 +8°C° 0 mm 1 m/s 742 mmHg 69%
    13:00 +8°C° 0 mm 1 m/s 742 mmHg 69%
    14:00 +8°C° 0 mm 1 m/s 742 mmHg 68%
    15:00 +8°C° 0 mm 1 m/s 742 mmHg 68%
    16:00 +7°C° 0 mm 1 m/s 742 mmHg 72%
    17:00 +6°C° 0 mm 1 m/s 742 mmHg 76%
    18:00 +4°C° 0 mm 0 m/s 742 mmHg 79%
    19:00 +5°C° 0 mm 1 m/s 743 mmHg 79%
    20:00 +5°C° 0 mm 1 m/s 743 mmHg 80%
    21:00 +4°C° 0 mm 1 m/s 743 mmHg 80%
    22:00 +4°C° 0 mm 1 m/s 743 mmHg 80%
    23:00 +4°C° 0 mm 1 m/s 743 mmHg 79%
    Arată mai mult